Rbgn^[z[y[W
メイン
   新天体発見情報
     Comet P/2011 Q3 = 2022 G1 (McNaught)
投稿するにはまず登録を

フラット表示 前のトピック | 次のトピック
投稿者 スレッド
佐藤裕久
投稿日時: 2022-4-27 8:03
モデレータ
登録日: 2005-6-12
居住地: 日本
投稿: 2701
オンライン
Comet P/2011 Q3 = 2022 G1 (McNaught)

佐藤英貴氏(東京都文京区)の通報によると、4月5日、10日と11日UT、オーストラリア, NSW,
Siding Springにある0.51-m f/6.8 アストログラフの遠隔操作でP/2011 Q3を検出した(CBET 
2803, IAUC 9229を参照)。
佐藤氏によると、この彗星は各夜(4月5日と11日は12枚、10日は7枚の60秒露出のスタックで
恒星状に見えた。4月5日の光度は、6".6の円形範囲で測定した。4月10日と11日の光度は、
4".9の円形範囲で測定した。

検出位置は次のとおり、

     2022 UT             R.A. (2000) Decl.       Mag.   Observer
     Apr.  5.79152   21 31 03.16   -20 13 07.4          Sato
           5.79705   21 31 03.75   -20 13 04.6   20.0     "
          10.75771   21 39 52.41   -19 36 24.2            "
          10.76114   21 39 52.77   -19 36 22.6   20.5     "
          11.78503   21 41 41.00   -19 28 43.4            "
          11.79008   21 41 41.51   -19 28 41.3   20.1     "

NK 2201とICQ's 2021 Comet Handbookの中野主一氏の予報に対する修正値は、Delta(T) = 
-0.02 dayであった。
MPC 77806の予報に対する修正値は、Delta(T) = -0.15 dayであった。。
「彗星年表2021, 2022」の軌道に対する修正値は、Delta(T) = +0.03 dayであった。

MPCの連結軌道要素と位置推算表は次のとおり、

Orbital elements:
    P/2011 Q3 (McNaught)                                                        
Epoch 2011 Aug. 27.0 TT = JDT 2455800.5                                         
T 2011 Aug. 14.32179 TT                                 Rudenko                 
q   2.3678768            (2000.0)            P               Q                  
n   0.08677397     Peri.  310.23611     +0.96591524     +0.25158001             
a   5.0529274      Node    35.31605     -0.19370721     +0.85867977             
e   0.5313852      Incl.    6.05247     -0.17171277     +0.44651601             
P  11.4                                                                         
From 141 observations 2011 Aug. 29-2022 Apr. 11, mean residual 0".5.            
                                                                                
    P/2011 Q3 (McNaught)                                                        
Epoch 2022 Aug. 9.0 TT = JDT 2459800.5                                          
T 2022 Aug. 19.14593 TT                                 Rudenko                 
q   2.3224819            (2000.0)            P               Q                  
n   0.08875299     Peri.  310.97948     +0.95406016     +0.29434424             
a   4.9775321      Node    32.01866     -0.23330361     +0.84700628             
e   0.5334070      Incl.    6.05781     -0.18798574     +0.44265318             
P  11.1                                                                         
From 141 observations 2011 Aug. 29-2022 Apr. 11, mean residual 0".5.            
                                                                                
    P/2011 Q3 (McNaught)                                                        
Epoch 2033 July 22.0 TT = JDT 2463800.5                                         
T 2033 July 24.17191 TT                                 Rudenko                 
q   2.3232400            (2000.0)            P               Q                  
n   0.08896745     Peri.  310.10843     +0.94474902     +0.32316131             
a   4.9695296      Node    31.15134     -0.25907463     +0.83877719             
e   0.5325030      Incl.    6.09423     -0.20082237     +0.43820040             
P  11.1                                                                         
From 141 observations 2011 Aug. 29-2022 Apr. 11, mean residual 0".5.            
                                                                                
    P/2011 Q3 (McNaught)                                                        
Epoch 2022 Jan. 21.0 TT = JDT 2459600.5                                         
T 2022 Aug. 19.25048 TT                                 Rudenko                 
q   2.3223481            (2000.0)            P               Q                  
n   0.08891347     Peri.  311.00169     +0.95421555     +0.29383794             
a   4.9715408      Node    32.02685     -0.23285111     +0.84713612             
e   0.5328716      Incl.    6.05764     -0.18775793     +0.44274107             
P  11.1                                                                         
From 141 observations 2011 Aug. 29-2022 Apr. 11, mean residual 0".5.            
                                                                                
Ephemeris:
Date    TT    R. A. (2000) Decl.     Delta      r    Elong.  Phase   m1
2022 03 17    20 54 49.3 -22 30 17   3.2235  2.6382    46.4    15.9  20.3
...
2022 04 01    21 22 25.6 -20 47 50   3.0318  2.5849    54.6    18.4  20.0
...
2022 04 09    21 36 45.7 -19 49 30   2.9261  2.5580    59.0    19.6  19.9
...
2022 04 15    21 47 18.3 -19 04 33   2.8457  2.5385    62.2    20.5  19.8
2022 04 16    21 49 02.7 -18 56 58   2.8322  2.5353    62.8    20.6  19.8
2022 04 17    21 50 46.7 -18 49 23   2.8187  2.5322    63.3    20.7  19.8
...
2022 04 23    22 01 03.7 -18 03 29   2.7374  2.5136    66.6    21.5  19.7
...
2022 05 01    22 14 26.1 -17 01 47   2.6284  2.4900    71.0    22.5  19.6
...
2022 05 16    22 38 16.6 -15 07 03   2.4242  2.4493    79.4    23.9  19.3

(MPEC 2022-H01、CBET 5115、oaa-comet 3159)

フラット表示 前のトピック | 次のトピック

題名 投稿者 日時
 » Comet P/2011 Q3 = 2022 G1 (McNaught) 佐藤裕久 2022-4-27 8:03

投稿するにはまず登録を
 
© 1999 Tsutomu Seki.